Вернуться в каталог

STARLINK-35098

АктивенСвязьVLEO
NORAD 65476·PAYLOAD·🇺🇸 United States

Запущен Sep 3, 2025 с Cape Canaveral Space Force Station

Loading…

Ближайшие Пролёты (ближайшие 24 часа)

TLE

СвежийSource: CelesTrak SupGP

Эпоха: Sep 14, 2026, 20:44 UTC

1 65476C 25195U   26257.86437500 -.00032750  00000+0 -10528-2 0  2578
2 65476  53.1580  97.5813 0001340  87.9444 284.5040 15.31728550    10

Отслеживайте STARLINK-35098 в реальном времени с AllMySat

Download on the App Store